Weather in Meithila

Myanmar     20°53′06″N   95°51′18″E
temp.,
°C
wind,
m/s
gust,
m/s
humid.,
%
clouds,
%
prec.,
mm/h
press.,
hPa
HPBL,
m
23 may, mon
mon2300:30+27sse712705 0.4 1000540
03:30+26sse611815 0.1 1000467
06:30+26s7117660 0.1 1001509
09:30+31s67566 0.0 10021269
12:30+35s5441100 0.0 10002359
15:30+33s5645100 0.5 9991649
18:30+31s795687 0.5 1000754
21:30+28s7116699 0.0 1003621
24 may, tue
tue2400:30+27s6127197 0.0 1003634
03:30+26s61274100 0.0 1003677
06:30+26s477567 0.0 1004614
09:30+28s456689 0.0 1006893
12:30+31sw325473 0.0 10041547
15:30+30ssw446095 3.5 1003947
18:30+24se61090100 19.1 1004548
21:30+26s51074100 4.2 1006689
25 may, wed
wed2500:30+24s6117714 4.2 1007618
03:30+24s5108033 0.0 1006551
06:30+24s6108043 0.0 1007601
09:30+26s686942 0.0 1008795
12:30+27sse796982 0.1 1006892
15:30+25sse797960 0.1 1005758
18:30+24sse698145 0.1 1005683
21:30+24sse6108475 0.0 1007508
26 may, thu
thu2600:30+23sse6118154 0.0 1006507
03:30+23s5118167 0.0 1005465
06:30+23s51080100 0.0 1006441
09:30+24s587897 0.0 1007512
12:30+28sse466497 0.1 1005808
15:30+30sse455499 0.3 10011371
18:30+28se466414 0.3 1001298
21:30+27sse59715 0.0 1003290
27 may, fri
fri2700:30+26s510734 0.0 1003420
03:30+25sse59816 0.0 1002396
06:30+25sse598174 0.2 1004427
09:30+29s666044 0.0 1004943
12:30+33ssw554597 0.0 10021706
15:30+36sw443422 0.0 9982720
18:30+34sse22391 0.0 99859
21:30+31ssw7105218 0.0 1001835